MST,Max TemperatureF,Mean TemperatureF,Min TemperatureF,Max Dew PointF,MeanDew PointF,Min DewpointF,Max Humidity, Mean Humidity, Min Humidity, Max Sea Level PressureIn, Mean Sea Level PressureIn, Min Sea Level PressureIn, Max VisibilityMiles, Mean VisibilityMiles, Min VisibilityMiles, Max Wind SpeedMPH, Mean Wind SpeedMPH, Max Gust SpeedMPH,PrecipitationIn, CloudCover, Events, WindDirDegrees
2012-12-1,56,49,42,31,27,24,58,45,32,29.89,29.83,29.74,10,10,10,33,22,40,0.00,0,,230
2012-12-2,56,49,41,32,26,23,53,42,30,29.85,29.63,29.46,10,10,7,51,31,62,0.00,1,,218
2012-12-3,47,38,29,34,18,11,79,52,25,30.22,30.01,29.66,10,10,10,33,16,41,0.02,1,,236
2012-12-4,47,35,22,30,19,11,68,47,26,30.30,30.18,30.03,10,10,10,38,21,48,0.00,0,,225
2012-12-5,57,48,38,32,28,22,70,50,30,29.99,29.87,29.76,10,10,10,35,21,44,0.00,1,,225
2012-12-6,48,35,22,29,19,12,75,53,31,30.02,29.90,29.79,10,10,10,18,8,23,0.00,3,,274
2012-12-7,40,29,18,20,14,4,91,59,27,29.98,29.90,29.80,10,10,9,24,10,31,T,4,,237
2012-12-8,39,25,11,21,15,4,84,61,38,30.19,29.80,29.62,10,8,0,28,12,33,0.05,5,Fog-Snow,328
2012-12-9,19,7,-6,7,1,-9,88,71,54,30.46,30.31,30.04,10,10,4,18,8,48,T,3,Snow,239
2012-12-10,29,19,9,16,9,3,92,69,46,30.12,30.02,29.93,10,10,10,28,14,35,0.00,6,,244
2012-12-11,38,26,13,21,14,8,80,60,40,30.05,29.87,29.70,10,10,10,31,18,41,0.00,1,,227
2012-12-12,47,35,23,18,15,14,63,45,26,29.92,29.72,29.63,10,10,10,38,24,48,0.00,0,,225
2012-12-13,47,36,24,16,14,10,68,47,26,29.94,29.89,29.80,10,10,10,28,12,35,0.00,2,,241
2012-12-14,43,32,21,15,13,11,68,50,32,29.80,29.69,29.56,10,10,10,13,5,14,0.00,1,,269
2012-12-15,35,27,19,27,23,14,88,70,51,29.85,29.73,29.65,10,8,2,17,4,21,0.01,7,Snow,297
2012-12-16,37,26,15,18,10,3,81,53,25,29.83,29.73,29.61,10,10,10,26,15,33,0.00,1,,247
2012-12-17,48,35,22,25,16,1,65,50,34,29.74,29.55,29.40,10,10,10,47,23,59,T,0,,233
2012-12-18,31,22,12,6,-2,-8,53,36,19,29.87,29.76,29.60,10,10,10,29,12,36,0.00,3,,280
2012-12-19,27,16,5,1,-6,-13,58,38,17,30.28,30.09,29.86,10,10,10,23,8,28,0.00,2,,301
2012-12-20,35,25,14,-3,-5,-9,51,35,19,30.36,30.29,30.22,10,10,10,39,27,52,0.00,0,,220
2012-12-21,43,34,25,0,-3,-5,29,21,13,30.22,30.13,30.03,10,10,10,38,22,47,0.00,0,,222
2012-12-22,45,35,24,2,0,-1,35,26,16,30.12,29.98,29.79,10,10,10,33,18,44,0.00,0,,228
2012-12-23,42,33,23,16,9,4,60,40,20,30.01,29.92,29.81,10,10,10,32,18,41,0.00,2,,231
2012-12-24,37,21,5,22,12,0,84,64,43,30.20,29.90,29.73,10,6,1,25,14,31,0.07,7,Snow,11
2012-12-25,17,9,1,6,1,-4,87,74,61,30.39,30.22,30.05,10,6,1,21,10,25,0.01,5,Snow,261
2012-12-26,29,19,9,21,15,4,88,72,55,30.08,29.74,29.58,10,5,0,24,10,29,0.12,7,Fog-Snow,239
2012-12-27,19,14,9,13,10,6,92,86,80,30.07,29.80,29.63,10,3,1,10,4,13,0.11,8,Snow,283
2012-12-28,22,13,3,14,6,-2,88,75,61,30.25,30.16,30.08,10,10,10,20,10,23,0.00,2,,238
2012-12-29,27,19,10,11,7,3,67,56,45,30.29,30.15,29.91,10,10,10,30,19,38,0.00,0,,220
2012-12-30,27,10,-7,9,2,-11,87,66,45,30.23,30.12,30.01,10,10,10,28,10,24,0.00,0,,276
2012-12-31,20,5,-11,8,-2,-15,83,70,56,30.29,30.24,30.17,10,10,10,14,8,17,0.00,1,,253